Atwater, CA

12:13 PM PDT on June 28, 2017 (GMT -0700)
Castle

Weather History for KMER - December, 2012

Change the Weather History Date:

Sunday, December 2, 2012

  Actual Average (KMCE) Record (KMCE)
Temperature  
Mean Temperature 58 °F -  
Max Temperature 62 °F 58 °F 67 °F (2013)
Min Temperature 53 °F 36 °F 27 °F (2006)
Degree Days  
Heating Degree Days 8    
Growing Degree Days 8 (Base 50)    
Moisture  
Dew Point 58 °F    
Average Humidity 100    
Maximum Humidity 100    
Minimum Humidity 100    
Precipitation  
Precipitation 0.00 in - - ()
Sea Level Pressure  
Sea Level Pressure 29.99 in    
Wind  
Wind Speed 15 mph (SSE)    
Max Wind Speed 28 mph    
Max Gust Speed 34 mph    
Visibility 9 miles    
Events Rain    
Averages and records for this station are not official NWS values.
T = Trace of Precipitation, MM = Missing Value Source: NWS Daily Summary

Daily Weather History Graph

Daily Weather History Graph

Search for Another Location

Airport or City:

Trip Planner

Search our weather history database for the weather conditions in past years. The results will help you decide how hot, cold, wet, or windy it might be!

Date:

Astronomy

Dec. 02, 2012 Rise Set
Actual Time 6:59 AM PST 4:44 PM PST
Civil Twilight 6:30 AM PST 5:13 PM PST
Nautical Twilight 5:58 AM PST 5:45 PM PST
Astronomical Twilight 5:26 AM PST 6:17 PM PST
Moon 8:34 PM PST (12/2) 9:53 AM PST (12/2)
Length of Visible Light 10h 42m
Length of Day
9h 45m
Waning Gibbous, 85% of the Moon is Illuminated
Dec 2
Waning Gibbous
Dec 6
Last Quarter
Dec 13
New
Dec 19
First Quarter
Dec 28
Full

Hourly Weather History & Observations

Time (PST) Temp. Dew Point Humidity Pressure Visibility Wind Dir Wind Speed Gust Speed Precip Events Conditions
12:15 AM 60.8 °F 60.8 °F 100% 29.99 in 10.0 mi South 13.8 mph - N/A   Overcast
12:35 AM 60.8 °F 60.8 °F 100% 29.99 in 10.0 mi South 12.7 mph - N/A   Overcast
12:55 AM 60.8 °F 60.8 °F 100% 29.99 in 10.0 mi South 13.8 mph 19.6 mph N/A   Overcast
1:15 AM 60.8 °F 60.8 °F 100% 29.97 in 9.0 mi SSE 18.4 mph 23.0 mph N/A   Overcast
1:35 AM 60.8 °F 60.8 °F 100% 29.97 in 10.0 mi South 17.3 mph 23.0 mph N/A   Overcast
1:55 AM 60.8 °F 60.8 °F 100% 29.98 in 10.0 mi SSE 16.1 mph 19.6 mph N/A   Overcast
2:15 AM 60.8 °F 60.8 °F 100% 29.97 in 10.0 mi SSE 17.3 mph 20.7 mph N/A   Overcast
2:35 AM 60.8 °F 60.8 °F 100% 29.97 in 10.0 mi South 18.4 mph 24.2 mph N/A   Overcast
2:55 AM 60.8 °F 60.8 °F 100% 29.96 in 10.0 mi South 19.6 mph 23.0 mph N/A   Overcast
3:15 AM 60.8 °F 60.8 °F 100% 29.95 in 10.0 mi SSE 17.3 mph 26.5 mph N/A   Overcast
3:35 AM 60.8 °F 60.8 °F 100% 29.95 in 10.0 mi South 21.9 mph 28.8 mph N/A   Overcast
3:55 AM 60.8 °F 60.8 °F 100% 29.94 in 10.0 mi South 20.7 mph 28.8 mph N/A   Overcast
4:15 AM 60.8 °F 60.8 °F 100% 29.93 in 10.0 mi South 20.7 mph 28.8 mph N/A   Overcast
4:35 AM 60.8 °F 60.8 °F 100% 29.93 in 10.0 mi South 19.6 mph 25.3 mph N/A   Overcast
4:55 AM 60.8 °F 60.8 °F 100% 29.93 in 10.0 mi South 20.7 mph 29.9 mph N/A   Overcast
5:15 AM 60.8 °F 60.8 °F 100% 29.91 in 10.0 mi South 23.0 mph 29.9 mph N/A   Mostly Cloudy
5:35 AM 60.8 °F 60.8 °F 100% 29.91 in 10.0 mi South 21.9 mph 28.8 mph N/A   Mostly Cloudy
5:55 AM 60.8 °F 60.8 °F 100% 29.91 in 10.0 mi South 19.6 mph 28.8 mph N/A   Overcast
6:45 AM 62.6 °F 62.6 °F 100% 29.92 in 10.0 mi SSE 23.0 mph 27.6 mph N/A   Overcast
7:45 AM 60.8 °F 60.8 °F 100% 29.90 in 10.0 mi SSE 25.3 mph 29.9 mph N/A   Overcast
8:45 AM 62.6 °F 62.6 °F 100% 29.92 in 10.0 mi South 25.3 mph 32.2 mph N/A Rain Light Rain
9:45 AM 60.8 °F 60.8 °F 100% 29.92 in 7.0 mi SSE 24.2 mph 34.5 mph N/A Rain Rain
10:45 AM 60.8 °F 60.8 °F 100% 29.91 in 7.0 mi South 27.6 mph 32.2 mph N/A Rain Rain
11:45 AM 60.8 °F 60.8 °F 100% 29.91 in 3.0 mi South 20.7 mph 28.8 mph N/A Rain Rain
12:45 PM 60.8 °F 60.8 °F 100% 29.93 in 2.0 mi WNW 9.2 mph - N/A Rain Rain
1:45 PM 57.2 °F 57.2 °F 100% 29.95 in 1.5 mi North 17.3 mph - N/A Rain Rain
2:45 PM 57.2 °F 57.2 °F 100% 29.97 in 7.0 mi North 9.2 mph - N/A   Overcast
3:47 PM 57.2 °F 57.2 °F 100% 30.00 in 7.0 mi NNE 6.9 mph - N/A   Overcast
4:47 PM 57.2 °F 57.2 °F 100% 30.02 in 10.0 mi NE 5.8 mph - N/A   Mostly Cloudy
5:45 PM 55.4 °F 55.4 °F 100% 30.01 in 10.0 mi Calm Calm - N/A   Scattered Clouds
6:45 PM 53.6 °F 53.6 °F 100% 30.02 in 10.0 mi Calm Calm - N/A   Overcast
7:45 PM 55.4 °F 55.4 °F 100% 30.03 in 10.0 mi WNW 5.8 mph - N/A   Scattered Clouds
8:15 PM 55.4 °F 55.4 °F 100% 30.04 in 9.0 mi Calm Calm - N/A   Overcast
8:35 PM 55.4 °F 55.4 °F 100% 30.06 in 5.0 mi North 5.8 mph - N/A   Overcast
8:45 PM 55.4 °F 55.4 °F 100% 30.05 in 7.0 mi Calm Calm - N/A   Overcast
8:55 PM 55.4 °F 55.4 °F 100% 30.06 in 5.0 mi Calm Calm - N/A   Overcast
9:15 PM 55.4 °F 55.4 °F 100% 30.04 in 5.0 mi North - - N/A   Overcast
9:35 PM 53.6 °F 53.6 °F 100% 30.05 in 7.0 mi North - - N/A   Mostly Cloudy
9:55 PM 53.6 °F 53.6 °F 100% 30.06 in 9.0 mi North - - N/A   Mostly Cloudy
10:15 PM 53.6 °F 53.6 °F 100% 30.08 in 10.0 mi North - - N/A   Scattered Clouds
10:35 PM 53.6 °F 53.6 °F 100% 30.08 in 10.0 mi North - - N/A   Scattered Clouds
10:55 PM 53.6 °F 53.6 °F 100% 30.10 in 10.0 mi North 6.9 mph - N/A   Mostly Cloudy
11:15 PM 53.6 °F 53.6 °F 100% 30.09 in 10.0 mi North - - N/A   Overcast
11:35 PM 53.6 °F 53.6 °F 100% 30.10 in 10.0 mi North 8.1 mph - N/A   Overcast
11:55 PM 53.6 °F 53.6 °F 100% 30.10 in 10.0 mi North - - N/A   Overcast